This demonstration page uses our WeatherBlox Daily Observations layout. Learn more.

Left ArrowRight Arrow

44.8408, -93.29828

Hourly Observations for May 5, 2021

Temp ( °F °C ) Dew Point ( °F °C ) Humidity (%) Winds ( mph kmh ) Pressure ( in mb ) Visibility ( mi km ) Precip ( " mm )
12:53 am 00:53 Clear 46 7.8 28 -2.2 50 50 N 5 7 30.09 1019 10 16 0.00 0.00
1:53 am 01:53 Clear 46 7.8 28 -2.2 50 50 NNW 3 6 30.10 1019 10 16 0.00 0.00
2:53 am 02:53 Clear 44 6.7 31 -0.6 60 60 N 3 6 30.10 1019 10 16 0.00 0.00
3:53 am 03:53 Clear 41 5 29 -1.7 62 62 Calm 30.11 1020 10 16 0.00 0.00
4:53 am 04:53 Clear 41 5 30 -1.1 65 65 Calm 30.12 1020 10 16 0.00 0.00
5:53 am 05:53 Clear 39 3.9 32 0 76 76 Calm 30.14 1021 10 16 0.00 0.00
6:53 am 06:53 Mostly Sunny 42 5.6 31 -0.6 65 65 Calm 30.15 1021 10 16 0.00 0.00
7:53 am 07:53 Mostly Sunny 46 7.8 32 0 58 58 Calm 30.16 1022 10 16 0.00 0.00
8:53 am 08:53 Mostly Cloudy 49 9.4 32 0 52 52 ESE 3 6 30.18 1022 10 16 0.00 0.00
9:53 am 09:53 Cloudy 53 11.7 31 -0.6 43 43 Calm 30.18 1022 10 16 0.00 0.00
10:53 am 10:53 Cloudy 53 11.7 27 -2.8 37 37 N 8 13 30.18 1022 10 16 0.00 0.00
11:53 am 11:53 Cloudy 54 12.2 27 -2.8 35 35 N 3 6 30.19 1022 10 16 0.00 0.00
12:53 pm 12:53 Cloudy 53 11.7 27 -2.8 37 37 NW 7 11 30.19 1022 10 16 0.00 0.00
1:53 pm 13:53 Cloudy 50 10 29 -1.7 44 44 VRB 5 7 30.20 1023 10 16 0.00 0.00
2:53 pm 14:53 Cloudy with Light Rain 48 8.9 36 2.2 63 63 N 8 13 30.21 1023 10 16 0.01 0.25
3:53 pm 15:53 Cloudy with Light Rain 47 8.3 39 3.9 74 74 N 9 15 30.20 1023 9 14 0.02 0.51
4:53 pm 16:53 Cloudy with Light Rain 47 8.3 39 3.9 74 74 NNE 6 9 30.20 1023 8 13 0.01 0.25
5:53 pm 17:53 Cloudy with Light Rain 46 7.8 39 3.9 77 77 NNW 3 6 30.21 1023 6 10 0.02 0.51
6:53 pm 18:53 Cloudy with Light Rain 46 7.8 40 4.4 79 79 SW 3 6 30.20 1023 7 11 0.00 0.00
7:53 pm 19:53 Cloudy 45 7.2 42 5.6 90 90 SW 6 9 30.19 1022 9 14 0.01 0.25
8:53 pm 20:53 Cloudy 45 7.2 42 5.6 90 90 SW 7 11 30.19 1022 10 16 0.00 0.00
9:34 pm 21:34 Cloudy 45 7.2 42 5.6 90 90 WNW 3 6 30.20 1023 10 16 0.00 0.00
9:53 pm 21:53 Cloudy 44 6.7 42 5.6 93 93 WNW 5 7 30.19 1023 10 16 0.00 0.00
10:53 pm 22:53 Cloudy 45 7.2 41 5 86 86 WSW 5 7 30.19 1023 10 16 0.00 0.00
11:53 pm 23:53 Partly Cloudy 43 6.1 40 4.4 89 89 WNW 6 9 30.20 1023 10 16 0.00 0.00

Powered by AerisWeather